Airfield :







YOU CAN JOIN US ON...

 
LOGIN :

Register | Disclaimer

   EN    FR    IT 

 









Legend :    VFR   Marginal VFR   IFR   Intensive IFR   Very Intensive IFR
Visi :
Ceiling :
>= 8 km
>= 3000ft
5 to 8 km
1000 to 3000 ft
1500m to 5 km
500 to 1000 ft
800 to 1500m
200 to 500 ft
< 800m
< 200 ft
Symbols :   Thunderstorms  Fog  Heavy snow  Heavy precipitations  Wind > 20 kt






- Airport Elevation : 488 ft
- IATA code : EEN


KEEN - Dillant Hopkins

CURRENT METAR :
  • 262056Z AUTO 20003KT 1SM -SN BKN012 BKN018 OVC034 M03/M07 A2996 RMK AO2 UPB29E39SNB39 SLP157 P0000 60000 T10281067 55016 FZRANO $

EXPIRED METARs :
  • 261956Z AUTO 00000KT 10SM OVC060 M02/M08 A2996 RMK AO2 UPB1857E26 SLP157 P0000 T10171078 FZRANO $
  • 261856Z AUTO 31003KT 10SM OVC085 M02/M08 A2998 RMK AO2 UPE1759 SLP165 P0000 T10171078 FZRANO $
  • 261756Z AUTO 00000KT 10SM UP OVC085 M01/M07 A3001 RMK AO2 UPE1658B49 SLP173 P0000 60000 T10111072 11011 21133 58028 FZRANO $

TAF N/A
KZBW FIR / North America



MET'MAP, your aeronautical weather chart ! - Copyright ORBIFLY December 2007 - Disclaimer

ORBIFLY MET'MAP TEAM :

Programming & Development : Alexandra Zaïnal
Concept & original design : Baudouin d'Aumeries
Assistance for programming : Marc-Olivier Méhu
Technical & hardware support : Manuel Goepfert

Contact : metmap@orbifly.com




SOURCES & CREDITS :

   NOAA